Regional Weather Roundup
Issued by NWS

Home | Current Version | Previous Version | Text Only | Print | Product List | Glossary Off
Versions: 1 2 3 4 5 6 7 8 9 10 11 12 13 14 15 16 17 18 19 20 21 22 23 24 25 26 27 28 29 30 31 32 33 34 35 36 37 38 39 40 41 42 43 44 45 46 47 48 49 50

000
ASUS43 KMPX 301301
RWRMN
WEATHER ROUNDUP FOR MINNESOTA
NATIONAL WEATHER SERVICE TWIN CITIES/CHANHASSEN MN
800 AM CDT SAT APR 30 2016


NOTE: "FAIR" INDICATES FEW OR NO CLOUDS BELOW 12,000 FEET WITH NO
SIGNIFICANT WEATHER AND/OR OBSTRUCTIONS TO VISIBILITY. N/A MEANS
CURRENT SKY AND/OR WEATHER CONDITIONS ARE NOT AVAILABLE.

MNZ060>063-068>070-301400-
   Twin Cities Metro

CITY           SKY/WX    TMP DP  RH WIND       PRES   REMARKS
TWIN CITIES    CLOUDY    43  33  68 E9        30.09S
ST PAUL        PTSUNNY   43  33  68 E10       30.11S
CRYSTAL        PTSUNNY   42  33  70 NE6       30.09F
EDEN PRAIRIE   PTSUNNY   44  33  65 NE12      30.07R
SOUTH ST PAUL  CLOUDY    43  33  68 NE9       30.10S
LAKE ELMO      FAIR      43  34  70 E12       30.11R
$$
MNZ001>005-007-008-013>017-022>024-027-028-301400-
   Northwest Minnesota

CITY           SKY/WX    TMP DP  RH WIND       PRES   REMARKS
BEMIDJI        SUNNY     40  33  75 E9        30.25S
HALLOCK        SUNNY     45  34  65 E8        30.32R
ROSEAU         SUNNY     39  36  87 NE6       30.34R
WARROAD        SUNNY     41  36  81 NE8       30.35R
THIEF RVR FALL MOSUNNY   43  30  61 E10       30.30R
CROOKSTON      SUNNY     45  34  65 E8        30.29R
FOSSTON        SUNNY     43  34  70 NE6       30.25F
DETROIT LAKES  SUNNY     43  32  65 E13       30.20S
MOORHEAD       MOSUNNY   45  32  61 NE12G17   30.20F
PARK RAPIDS    SUNNY     43  30  60 E14       30.20F
MAHNOMEN       FAIR      41  32  72 NE10      30.22F
$$
MNZ006-009>011-018-025>026-301400-
   North Central Minnesota

CITY           SKY/WX    TMP DP  RH WIND       PRES   REMARKS
BAUDETTE       SUNNY     41  32  70 E6        30.33R
FLAG ISLAND    SUNNY     39  34  81 N7        30.35R
INTL FALLS     SUNNY     41  33  73 NE7       30.32R
WASKISH        SUNNY     41  34  75 NE7       30.30R
BIG FORK       SUNNY     43  32  65 NE5       30.27F
LONGVILLE      SUNNY     43  30  61 NE8       30.22F
GRAND RAPIDS   SUNNY     41  28  60 E7        30.26S
CRANE LAKE     SUNNY     36  34  93 CALM      30.33S
ORR            SUNNY     39  28  65 CALM      30.27R
COOK           SUNNY     41  32  70 NE3       30.27S
WALKER         FAIR      41  32  70 E12G17    30.23S
$$
MNZ012-019>021-037-301400-
   Northeast Minnesota

CITY           SKY/WX    TMP DP  RH WIND       PRES   REMARKS
DULUTH         MOSUNNY   41  31  67 E17       30.25R
ELY            SUNNY     39  32  75 N6        30.27F
HIBBING        SUNNY     40  31  70 E7        30.26R
EVELETH        SUNNY     41  32  70 E9        30.26S
DULUTH HARBOR  SUNNY     39  36  87 NE16      30.27R
TWO HARBORS    SUNNY     45  36  70 E16       30.25R
SILVER BAY     SUNNY     45  32  61 NE13G20   30.26R
GRAND MARAIS     N/A     45  30  55 NE9       30.29S
G MARAIS ARPRT SUNNY     39  27  60 N10G16    30.27S
$$
MNZ029>031-032-039>041-046>048-054>057-064-301400-
   West Central Minnesota

CITY           SKY/WX    TMP DP  RH WIND       PRES   REMARKS
FERGUS FALLS   CLOUDY    45  30  57 E16G25    30.14R
WHEATON        MOSUNNY   45  36  70 NE13      30.14S
MORRIS         CLOUDY    43  32  65 E17G25    30.09F
ALEXANDRIA     CLOUDY    40  31  70 NE14      30.12S
ELBOW LAKE     FAIR      42  32  68 NE12      30.13R
WADENA         SUNNY     39  30  70 E14G21    30.17S
GLENWOOD       CLOUDY    39  32  75 NE21G26   30.10S
APPLETON       CLOUDY    43  34  70 NE14      30.07S
BENSON         CLOUDY    41  30  65 E13G20    30.08S
ORTONVILLE     CLOUDY    41  32  70 NE16G25   30.07F
MADISON        PTSUNNY   41  34  75 NE14      30.06R
WILLMAR        FAIR      43  34  70 NE15G24   30.07S
$$
MNZ033>034-036-042>043-049>051-058-059-301400-
   Central Minnesota

CITY           SKY/WX    TMP DP  RH WIND       PRES   REMARKS
ST CLOUD       CLOUDY    39  30  70 NE14G23   30.12S
SAUK CENTRE    FAIR      39  32  73 NE17G23   30.11F
PAYNESVILLE    CLOUDY    39  32  74 NE15G23   30.09F
AITKIN         SUNNY     43  30  61 NE9G20    30.20R
PINE RIVER     SUNNY     43  30  61 E12G18    30.24R
BRAINERD       SUNNY     41  30  65 NE15      30.19S
STAPLES        CLOUDY    39  28  65 E10G20    30.17S
LONG PRAIRIE   FAIR      37  30  75 NE10      30.14S
LITTLE FALLS   MOSUNNY   41  30  65 NE10G21   30.15S
LITCHFIELD     CLOUDY    39  36  87 NE14      30.08S
BUFFALO        CLOUDY    40  32  73 NE12G18   30.11R
MAPLE LAKE     CLOUDY    39  33  79 NE12G17   30.10F
HUTCHINSON     SUNNY     41  35  79 NE14      30.07S
$$
MNZ037-044-045-052-053-301400-
   East Central Minnesota

CITY           SKY/WX    TMP DP  RH WIND       PRES   REMARKS
PRINCETON      PTSUNNY   39  32  75 NE9G16    30.14S
MORA           CLOUDY    37  30  75 NE3       30.17F
CAMBRIDGE      CLOUDY    43  30  61 NE9G17    30.13S
RUSH CITY      MOSUNNY   40  32  74 NE12G18   30.15F
MOOSE LAKE     SUNNY     39  32  75 NE9G23    30.19S
HINCKLEY       FAIR      41  32  70 NE8       30.17F
CLOQUET        SUNNY     43  30  61 E17G26    30.23S
MCGREGOR       SUNNY     41  32  70 E12G17    30.22S
$$
MNZ071>073-080-081-089-090-097-098-301400-
   Southwest Minnesota

CITY           SKY/WX    TMP DP  RH WIND       PRES   REMARKS
MONTEVIDEO     PTSUNNY   39  34  81 E16       30.07R
GRANITE FALLS  CLOUDY    42  35  77 NE13G21   30.06R
CANBY          CLOUDY    42  38  83 NE14      30.05S
MARSHALL       PTSUNNY   40  34  79 E15       30.02S
REDWOOD FALLS  CLOUDY    41  33  73 NE12G18   30.02F
OLIVIA         CLOUDY    39  32  75 NE14G21   30.04R
WINDOM         CLOUDY    43  39  87 NE15G22   29.97R
WORTHINGTON    CLOUDY    43  39  86 NE20      29.94R
JACKSON        CLOUDY    43  37  81 NE16      29.95R
TRACY          PTSUNNY   41  37  86 NE10G18   30.00S
SLAYTON        CLOUDY    40  38  92 NE16G22   29.97S
$$
MNZ065>067-074>077-082>085-091>093-301400-
   South Central Minnesota

CITY           SKY/WX    TMP DP  RH WIND       PRES   REMARKS
MANKATO        CLOUDY    45  36  70 NE13      30.01S
NEW ULM        CLOUDY    43  36  75 NE13G18   30.01S
ST JAMES       CLOUDY    39  34  81 NE12G17   30.00S
FAIRMONT       CLOUDY    45  30  57 NE17G25   29.96R
GLENCOE        PTSUNNY   42  36  81 NE8       30.06S
FARIBAULT      CLOUDY    43  37  81 NE7       30.04S
OWATONNA       CLOUDY    45  37  76 E15       30.02S
WASECA         CLOUDY    43  36  75 E20       30.02S
ALBERT LEA     CLOUDY    45  37  76 E20       29.98S
$$
MNZ078>079-086>088-094>096-301400-
   Southeast Minnesota

CITY           SKY/WX    TMP DP  RH WIND       PRES   REMARKS
ROCHESTER      CLOUDY    42  39  89 E14       30.02F
RED WING       CLOUDY    45  36  70 E8        30.07S
STANTON        CLOUDY    44  37  77 NE9       30.06R
DODGE CENTER   CLOUDY    43  37  81 E17       30.02S
WINONA         CLOUDY    43  36  75 E7        30.07S
AUSTIN         CLOUDY    43  37  81 E16G22    29.99S
PRESTON        CLOUDY    42  37  82 E14G20    30.01F
$$
ABBREVIATIONS USED IN REMARKS
   TC - TEMPERATURES IN CELSIUS
  WCI - WIND CHILL INDEX
   HX - HEAT INDEX
  VSB - VISIBILITY
$$



USA.gov is the U.S. government's official web portal to all federal, state and local government web resources and services.